Time,TemperatureF,DewpointF,PressureIn,WindDirection,WindDirectionDegrees,WindSpeedMPH,WindSpeedGustMPH,Humidity,HourlyPrecipIn,Conditions,Clouds,dailyrainin,SoftwareType,DateUTC
2013-02-03 00:03:00,22.0,18.0,30.00,SW,232,0.0,0.0,83,0.00,,,0.00,,2013-02-03 05:03:00,
2013-02-03 00:12:00,22.0,18.0,30.00,SW,232,0.0,0.0,83,0.00,,,0.00,,2013-02-03 05:12:00,
2013-02-03 00:22:00,22.0,18.0,30.00,SW,232,0.0,0.0,83,0.00,,,0.00,,2013-02-03 05:22:00,
2013-02-03 00:32:00,22.0,18.0,29.99,SW,232,0.0,0.0,84,0.00,,,0.00,,2013-02-03 05:32:00,
2013-02-03 00:42:00,22.0,18.0,29.99,SW,232,0.0,0.0,84,0.00,,,0.00,,2013-02-03 05:42:00,
2013-02-03 00:52:00,21.0,17.0,29.98,SW,232,0.0,0.0,84,0.00,,,0.00,,2013-02-03 05:52:00,
2013-02-03 01:02:00,21.0,17.0,29.98,SW,233,0.0,0.0,84,0.00,,,0.00,,2013-02-03 06:02:00,
2013-02-03 01:11:00,21.0,17.0,29.98,SW,233,0.0,0.0,84,0.00,,,0.00,,2013-02-03 06:11:00,
2013-02-03 01:21:00,21.0,17.0,29.97,SW,233,0.0,0.0,84,0.00,,,0.00,,2013-02-03 06:21:00,
2013-02-03 01:32:00,21.0,17.0,29.97,SW,233,0.0,0.0,84,0.00,,,0.00,,2013-02-03 06:32:00,
2013-02-03 01:42:00,21.0,17.0,29.97,SW,233,0.0,0.0,84,0.00,,,0.00,,2013-02-03 06:42:00,
2013-02-03 01:52:00,21.0,17.0,29.96,SW,233,0.0,0.0,84,0.00,,,0.00,,2013-02-03 06:52:00,
2013-02-03 02:01:00,21.0,17.0,29.96,SW,233,0.0,0.0,84,0.00,,,0.00,,2013-02-03 07:01:00,
2013-02-03 02:11:00,21.0,17.0,29.96,SW,233,0.0,0.0,84,0.00,,,0.00,,2013-02-03 07:11:00,
2013-02-03 02:21:00,21.0,17.0,29.96,SW,233,0.0,0.0,84,0.00,,,0.00,,2013-02-03 07:21:00,
2013-02-03 02:31:00,21.0,17.0,29.95,SW,233,0.0,0.0,85,0.00,,,0.00,,2013-02-03 07:31:00,
2013-02-03 02:42:00,21.0,17.0,29.95,SW,233,0.0,0.0,85,0.00,,,0.00,,2013-02-03 07:42:00,
2013-02-03 02:52:00,21.0,17.0,29.94,SW,233,0.0,0.0,85,0.00,,,0.00,,2013-02-03 07:52:00,
2013-02-03 03:01:00,21.0,17.0,29.94,SW,233,0.0,0.0,85,0.00,,,0.00,,2013-02-03 08:01:00,
2013-02-03 03:11:00,21.0,17.0,29.94,SW,233,0.0,0.0,85,0.00,,,0.00,,2013-02-03 08:11:00,
2013-02-03 03:22:00,21.0,17.0,29.93,SW,233,0.0,0.0,85,0.00,,,0.00,,2013-02-03 08:22:00,
2013-02-03 03:32:00,21.0,17.0,29.93,SW,233,0.0,0.0,85,0.00,,,0.00,,2013-02-03 08:32:00,
2013-02-03 03:41:00,21.0,17.0,29.93,SW,233,0.0,0.0,85,0.00,,,0.00,,2013-02-03 08:41:00,
2013-02-03 03:52:00,21.0,17.0,29.92,SW,233,0.0,0.0,85,0.00,,,0.00,,2013-02-03 08:52:00,
2013-02-03 04:03:00,21.0,17.0,29.92,SW,233,0.0,0.0,85,0.00,,,0.00,,2013-02-03 09:03:00,
2013-02-03 04:11:00,21.0,17.0,29.92,SW,233,0.0,0.0,85,0.00,,,0.00,,2013-02-03 09:11:00,
2013-02-03 04:21:00,20.0,16.0,29.91,SW,233,0.0,1.0,85,0.00,,,0.00,,2013-02-03 09:21:00,
2013-02-03 04:32:00,20.0,16.0,29.91,SW,233,0.0,0.0,85,0.00,,,0.00,,2013-02-03 09:32:00,
2013-02-03 04:42:00,20.0,16.0,29.91,SW,233,0.0,0.0,85,0.00,,,0.00,,2013-02-03 09:42:00,
2013-02-03 04:52:00,20.0,16.0,29.91,SW,233,0.0,1.0,86,0.00,,,0.00,,2013-02-03 09:52:00,
2013-02-03 05:01:00,20.0,16.0,29.90,SW,233,0.0,0.0,86,0.00,,,0.00,,2013-02-03 10:01:00,
2013-02-03 05:11:00,20.0,16.0,29.90,SW,233,0.0,0.0,86,0.00,,,0.00,,2013-02-03 10:11:00,
2013-02-03 05:21:00,20.0,16.0,29.89,SW,233,0.0,0.0,86,0.00,,,0.00,,2013-02-03 10:21:00,
2013-02-03 05:32:00,19.0,16.0,29.89,NNE,32,1.0,3.0,86,0.00,,,0.00,,2013-02-03 10:32:00,
2013-02-03 05:42:00,19.0,16.0,29.89,NNE,32,1.0,3.0,86,0.00,,,0.00,,2013-02-03 10:42:00,
2013-02-03 05:52:00,19.0,16.0,29.88,NE,42,1.0,2.0,87,0.00,,,0.00,,2013-02-03 10:52:00,
2013-02-03 06:02:00,19.0,16.0,29.88,NE,42,0.0,0.0,87,0.00,,,0.00,,2013-02-03 11:02:00,
2013-02-03 06:11:00,19.0,16.0,29.88,NE,42,0.0,0.0,87,0.00,,,0.00,,2013-02-03 11:11:00,
2013-02-03 06:22:00,19.0,16.0,29.88,NE,42,0.0,0.0,87,0.00,,,0.00,,2013-02-03 11:22:00,
2013-02-03 06:32:00,18.0,15.0,29.88,NE,41,0.0,1.0,87,0.00,,,0.00,,2013-02-03 11:32:00,
2013-02-03 06:42:00,18.0,15.0,29.88,NE,41,0.0,1.0,87,0.00,,,0.00,,2013-02-03 11:42:00,
2013-02-03 06:52:00,18.0,15.0,29.88,NE,42,0.0,1.0,87,0.00,,,0.00,,2013-02-03 11:52:00,
2013-02-03 07:02:00,18.0,15.0,29.88,NE,42,0.0,0.0,87,0.00,,,0.00,,2013-02-03 12:02:00,
2013-02-03 07:12:00,18.0,15.0,29.88,NE,42,0.0,0.0,87,0.00,,,0.00,,2013-02-03 12:12:00,
2013-02-03 07:22:00,18.0,15.0,29.90,NE,42,0.0,0.0,87,0.00,,,0.00,,2013-02-03 12:22:00,
2013-02-03 07:32:00,18.0,15.0,29.90,NE,42,0.0,0.0,87,0.00,,,0.00,,2013-02-03 12:32:00,
2013-02-03 07:42:00,18.0,15.0,29.90,NE,42,0.0,0.0,87,0.00,,,0.00,,2013-02-03 12:42:00,
2013-02-03 07:53:00,18.0,15.0,29.91,NE,42,0.0,0.0,87,0.00,,,0.00,,2013-02-03 12:53:00,
2013-02-03 08:03:00,18.0,15.0,29.91,NE,42,0.0,1.0,88,0.00,,,0.00,,2013-02-03 13:03:00,
2013-02-03 08:11:00,18.0,15.0,29.91,NE,42,0.0,1.0,88,0.00,,,0.00,,2013-02-03 13:11:00,
2013-02-03 08:21:00,18.0,15.0,29.91,NE,42,0.0,2.0,88,0.00,,,0.00,,2013-02-03 13:21:00,
2013-02-03 08:32:00,19.0,16.0,29.91,East,86,1.0,3.0,88,0.00,,,0.00,,2013-02-03 13:32:00,
2013-02-03 08:42:00,19.0,16.0,29.91,East,86,1.0,3.0,88,0.00,,,0.00,,2013-02-03 13:42:00,
2013-02-03 08:52:00,19.0,16.0,29.91,ENE,66,1.0,3.0,88,0.00,,,0.00,,2013-02-03 13:52:00,
2013-02-03 09:02:00,19.0,16.0,29.91,ENE,68,0.0,2.0,88,0.00,,,0.00,,2013-02-03 14:02:00,
2013-02-03 09:11:00,19.0,16.0,29.91,ENE,68,0.0,2.0,88,0.00,,,0.00,,2013-02-03 14:11:00,
2013-02-03 09:21:00,21.0,17.0,29.89,East,80,2.0,3.0,86,0.00,,,0.00,,2013-02-03 14:21:00,
2013-02-03 09:32:00,21.0,17.0,29.89,ENE,65,1.0,5.0,84,0.00,,,0.00,,2013-02-03 14:32:00,
2013-02-03 09:42:00,21.0,17.0,29.89,ENE,65,1.0,5.0,84,0.00,,,0.00,,2013-02-03 14:42:00,
2013-02-03 09:52:00,21.0,16.0,29.89,ENE,72,2.0,4.0,82,0.00,,,0.00,,2013-02-03 14:52:00,
2013-02-03 10:03:00,22.0,15.0,29.88,ENE,72,3.0,9.0,74,0.00,,,0.00,,2013-02-03 15:03:00,
2013-02-03 10:11:00,22.0,15.0,29.88,ENE,72,3.0,9.0,74,0.00,,,0.00,,2013-02-03 15:11:00,
2013-02-03 10:22:00,23.0,15.0,29.88,ENE,75,2.0,7.0,71,0.00,,,0.00,,2013-02-03 15:22:00,
2013-02-03 10:33:00,24.0,14.0,29.88,NE,51,3.0,9.0,66,0.01,,,0.01,,2013-02-03 15:33:00,
2013-02-03 10:42:00,24.0,14.0,29.88,NE,51,3.0,9.0,66,0.01,,,0.01,,2013-02-03 15:42:00,
2013-02-03 10:51:00,24.0,14.0,29.87,East,81,2.0,7.0,64,0.01,,,0.01,,2013-02-03 15:51:00,
2013-02-03 11:03:00,25.0,15.0,29.86,NE,46,4.0,6.0,64,0.02,,,0.02,,2013-02-03 16:03:00,
2013-02-03 11:11:00,25.0,15.0,29.86,NE,46,4.0,6.0,64,0.02,,,0.02,,2013-02-03 16:11:00,
2013-02-03 11:22:00,25.0,15.0,29.86,East,87,1.0,5.0,64,0.02,,,0.02,,2013-02-03 16:22:00,
2013-02-03 11:33:00,26.0,15.0,29.85,NNE,23,2.0,4.0,62,0.01,,,0.03,,2013-02-03 16:33:00,
2013-02-03 11:42:00,26.0,15.0,29.85,NNE,23,2.0,4.0,62,0.01,,,0.03,,2013-02-03 16:42:00,
2013-02-03 11:52:00,26.0,14.0,29.85,NE,53,2.0,4.0,61,0.01,,,0.03,,2013-02-03 16:52:00,
2013-02-03 12:02:00,26.0,14.0,29.83,ENE,71,3.0,7.0,60,0.02,,,0.04,,2013-02-03 17:02:00,
2013-02-03 12:11:00,26.0,14.0,29.83,ENE,71,3.0,7.0,60,0.02,,,0.04,,2013-02-03 17:11:00,
2013-02-03 12:22:00,27.0,15.0,29.82,SE,132,1.0,3.0,59,0.00,,,0.04,,2013-02-03 17:22:00,
2013-02-03 12:32:00,27.0,16.0,29.81,NNE,16,0.0,3.0,62,0.01,,,0.05,,2013-02-03 17:32:00,
2013-02-03 12:42:00,27.0,16.0,29.81,NNE,16,0.0,3.0,62,0.01,,,0.05,,2013-02-03 17:42:00,
2013-02-03 12:52:00,28.0,17.0,29.80,NNE,22,1.0,3.0,63,0.01,,,0.05,,2013-02-03 17:52:00,
2013-02-03 13:03:00,28.0,16.0,29.79,NNE,25,0.0,7.0,61,0.01,,,0.05,,2013-02-03 18:03:00,
2013-02-03 13:12:00,28.0,16.0,29.79,NNE,25,0.0,7.0,61,0.01,,,0.05,,2013-02-03 18:12:00,
2013-02-03 13:23:00,28.0,17.0,29.78,West,259,2.0,4.0,62,0.01,,,0.05,,2013-02-03 18:23:00,
2013-02-03 13:33:00,28.0,16.0,29.77,WNW,302,1.0,4.0,60,0.01,,,0.06,,2013-02-03 18:33:00,
2013-02-03 13:42:00,28.0,16.0,29.77,WNW,302,1.0,4.0,60,0.01,,,0.06,,2013-02-03 18:42:00,
2013-02-03 13:51:00,28.0,16.0,29.76,WSW,253,1.0,4.0,60,0.01,,,0.06,,2013-02-03 18:51:00,
2013-02-03 14:02:00,28.0,16.0,29.76,WSW,250,1.0,4.0,59,0.01,,,0.06,,2013-02-03 19:02:00,
2013-02-03 14:11:00,28.0,16.0,29.76,WSW,250,1.0,4.0,59,0.01,,,0.06,,2013-02-03 19:11:00,
2013-02-03 14:22:00,28.0,15.0,29.75,West,259,1.0,6.0,58,0.00,,,0.06,,2013-02-03 19:22:00,
2013-02-03 14:32:00,28.0,15.0,29.75,WSW,255,1.0,3.0,57,0.00,,,0.06,,2013-02-03 19:32:00,
2013-02-03 14:42:00,28.0,15.0,29.75,WSW,255,1.0,3.0,57,0.00,,,0.06,,2013-02-03 19:42:00,
2013-02-03 14:52:00,28.0,14.0,29.74,WSW,249,1.0,4.0,56,0.00,,,0.06,,2013-02-03 19:52:00,
2013-02-03 15:01:00,28.0,14.0,29.74,SW,225,2.0,3.0,54,0.00,,,0.06,,2013-02-03 20:01:00,
2013-02-03 15:12:00,28.0,14.0,29.74,SW,225,2.0,3.0,54,0.00,,,0.06,,2013-02-03 20:12:00,
2013-02-03 15:21:00,28.0,13.0,29.74,ENE,68,0.0,5.0,52,0.00,,,0.06,,2013-02-03 20:21:00,
2013-02-03 15:33:00,28.0,13.0,29.74,NW,322,0.0,3.0,52,0.00,,,0.06,,2013-02-03 20:33:00,
2013-02-03 15:42:00,28.0,13.0,29.74,NW,322,0.0,3.0,52,0.00,,,0.06,,2013-02-03 20:42:00,
2013-02-03 15:52:00,28.0,12.0,29.74,West,280,1.0,4.0,51,0.00,,,0.06,,2013-02-03 20:52:00,
2013-02-03 16:03:00,28.0,13.0,29.74,NE,40,1.0,4.0,52,0.00,,,0.06,,2013-02-03 21:03:00,
2013-02-03 16:11:00,28.0,13.0,29.74,NE,40,1.0,4.0,52,0.00,,,0.06,,2013-02-03 21:11:00,
2013-02-03 16:21:00,28.0,14.0,29.74,NNW,331,0.0,2.0,55,0.00,,,0.06,,2013-02-03 21:21:00,
2013-02-03 16:32:00,28.0,15.0,29.74,West,277,2.0,4.0,58,0.00,,,0.06,,2013-02-03 21:32:00,
2013-02-03 16:42:00,28.0,15.0,29.74,West,277,2.0,4.0,58,0.00,,,0.06,,2013-02-03 21:42:00,
2013-02-03 16:51:00,27.0,15.0,29.73,West,276,1.0,2.0,59,0.00,,,0.06,,2013-02-03 21:51:00,
2013-02-03 17:01:00,27.0,15.0,29.73,West,276,1.0,2.0,59,0.00,,,0.06,,2013-02-03 22:01:00,
2013-02-03 17:11:00,27.0,15.0,29.73,West,276,1.0,2.0,59,0.00,,,0.06,,2013-02-03 22:11:00,
2013-02-03 17:21:00,27.0,15.0,29.73,ENE,70,0.0,2.0,61,0.00,,,0.06,,2013-02-03 22:21:00,
2013-02-03 17:32:00,26.0,15.0,29.73,WSW,248,0.0,3.0,62,0.00,,,0.06,,2013-02-03 22:32:00,
2013-02-03 17:42:00,26.0,15.0,29.73,WSW,248,0.0,3.0,62,0.00,,,0.06,,2013-02-03 22:42:00,
2013-02-03 17:52:00,25.0,14.0,29.73,WSW,249,0.0,0.0,63,0.00,,,0.06,,2013-02-03 22:52:00,
2013-02-03 18:01:00,25.0,15.0,29.74,WSW,249,0.0,0.0,64,0.00,,,0.06,,2013-02-03 23:01:00,
2013-02-03 18:12:00,25.0,15.0,29.74,WSW,249,0.0,0.0,64,0.00,,,0.06,,2013-02-03 23:12:00,
2013-02-03 18:22:00,24.0,14.0,29.74,WSW,249,0.0,0.0,65,0.00,,,0.06,,2013-02-03 23:22:00,
2013-02-03 18:32:00,24.0,14.0,29.74,WSW,249,0.0,0.0,66,0.00,,,0.06,,2013-02-03 23:32:00,
2013-02-03 18:42:00,24.0,14.0,29.74,WSW,249,0.0,0.0,66,0.00,,,0.06,,2013-02-03 23:42:00,
2013-02-03 18:52:00,24.0,14.0,29.74,WSW,249,0.0,0.0,66,0.00,,,0.06,,2013-02-03 23:52:00,
2013-02-03 19:02:00,24.0,14.0,29.74,WSW,249,0.0,0.0,66,0.00,,,0.06,,2013-02-04 00:02:00,
2013-02-03 19:11:00,24.0,14.0,29.74,WSW,249,0.0,0.0,66,0.00,,,0.06,,2013-02-04 00:11:00,
2013-02-03 19:22:00,24.0,14.0,29.74,WSW,249,0.0,0.0,66,0.00,,,0.06,,2013-02-04 00:22:00,
2013-02-03 19:32:00,24.0,15.0,29.74,WSW,249,0.0,0.0,67,0.00,,,0.06,,2013-02-04 00:32:00,
2013-02-03 19:42:00,24.0,15.0,29.74,WSW,249,0.0,0.0,67,0.00,,,0.06,,2013-02-04 00:42:00,
2013-02-03 19:51:00,23.0,14.0,29.75,WSW,249,0.0,0.0,67,0.00,,,0.06,,2013-02-04 00:51:00,
2013-02-03 20:01:00,23.0,14.0,29.75,WSW,249,0.0,0.0,68,0.00,,,0.06,,2013-02-04 01:01:00,
2013-02-03 20:11:00,23.0,14.0,29.75,WSW,249,0.0,0.0,68,0.00,,,0.06,,2013-02-04 01:11:00,
2013-02-03 20:21:00,23.0,14.0,29.75,WSW,249,0.0,0.0,68,0.00,,,0.06,,2013-02-04 01:21:00,
2013-02-03 20:32:00,22.0,13.0,29.75,WSW,249,0.0,1.0,69,0.00,,,0.06,,2013-02-04 01:32:00,
2013-02-03 20:42:00,22.0,13.0,29.75,WSW,249,0.0,1.0,69,0.00,,,0.06,,2013-02-04 01:42:00,
2013-02-03 20:52:00,22.0,14.0,29.75,WSW,249,0.0,0.0,70,0.00,,,0.06,,2013-02-04 01:52:00,
2013-02-03 21:02:00,22.0,14.0,29.76,WSW,249,0.0,0.0,70,0.00,,,0.06,,2013-02-04 02:02:00,
2013-02-03 21:11:00,22.0,14.0,29.76,WSW,249,0.0,0.0,70,0.00,,,0.06,,2013-02-04 02:11:00,
2013-02-03 21:21:00,22.0,14.0,29.76,WSW,248,0.0,1.0,71,0.00,,,0.06,,2013-02-04 02:21:00,
2013-02-03 21:32:00,22.0,14.0,29.76,WSW,249,0.0,1.0,72,0.00,,,0.06,,2013-02-04 02:32:00,
2013-02-03 21:42:00,22.0,14.0,29.76,WSW,249,0.0,1.0,72,0.00,,,0.06,,2013-02-04 02:42:00,
2013-02-03 21:52:00,22.0,15.0,29.76,WSW,249,0.0,0.0,73,0.00,,,0.06,,2013-02-04 02:52:00,
2013-02-03 22:02:00,22.0,15.0,29.75,WSW,249,0.0,0.0,73,0.00,,,0.06,,2013-02-04 03:02:00,
2013-02-03 22:11:00,22.0,15.0,29.75,WSW,249,0.0,0.0,73,0.00,,,0.06,,2013-02-04 03:11:00,
2013-02-03 22:21:00,22.0,15.0,29.75,WSW,249,0.0,0.0,73,0.00,,,0.06,,2013-02-04 03:21:00,
2013-02-03 22:32:00,22.0,15.0,29.74,WSW,249,0.0,2.0,73,0.00,,,0.06,,2013-02-04 03:32:00,
2013-02-03 22:42:00,22.0,15.0,29.74,WSW,249,0.0,2.0,73,0.00,,,0.06,,2013-02-04 03:42:00,
2013-02-03 22:51:00,22.0,15.0,29.74,WSW,249,0.0,0.0,74,0.00,,,0.06,,2013-02-04 03:51:00,
2013-02-03 23:01:00,22.0,15.0,29.74,WSW,249,0.0,0.0,75,0.00,,,0.06,,2013-02-04 04:01:00,
2013-02-03 23:11:00,22.0,15.0,29.74,WSW,249,0.0,0.0,75,0.00,,,0.06,,2013-02-04 04:11:00,
2013-02-03 23:21:00,22.0,15.0,29.74,WSW,249,0.0,0.0,75,0.00,,,0.06,,2013-02-04 04:21:00,
2013-02-03 23:32:00,22.0,16.0,29.74,WSW,249,0.0,0.0,76,0.00,,,0.06,,2013-02-04 04:32:00,
2013-02-03 23:42:00,22.0,16.0,29.74,WSW,249,0.0,0.0,76,0.00,,,0.06,,2013-02-04 04:42:00,
2013-02-03 23:52:00,22.0,16.0,29.74,WSW,249,0.0,0.0,76,0.00,,,0.06,,2013-02-04 04:52:00,